Regional Weather Roundup
Issued by NWS Raleigh/Durham, NC

Home | Current Version | Previous Version | Text Only | Print | Product List | Glossary On
Versions: 1 2 3 4 5 6 7 8 9 10 11 12 13 14 15 16 17 18 19 20 21 22 23 24 25 26 27 28
000
ASUS42 KRAH 180410
RWRRAH
NORTH CAROLINA WEATHER ROUNDUP
NATIONAL WEATHER SERVICE RALEIGH NC
1200 AM EDT WED OCT 18 2017

NOTE: "FAIR" INDICATES FEW OR NO CLOUDS BELOW 12,000 FEET WITH NO
SIGNIFICANT WEATHER AND/OR OBSTRUCTIONS TO VISIBILITY.

NCZ001-053-055-056-065-067-180500-
WESTERN NORTH CAROLINA

CITY           SKY/WX    TMP DP  RH WIND       PRES   REMARKS
ASHEVILLE      CLEAR     45  42  89 SE3       30.35R
JEFFERSON      CLEAR     44  39  85 CALM      30.35S
MORGANTON      CLEAR     42  42  99 CALM      30.37S
HICKORY        CLEAR     46  45  96 CALM      30.33S
RUTHERFORDTON  CLEAR     46  46 100 CALM      30.34S
MOUNT AIRY     CLEAR     46  41  85 CALM      30.36S
BOONE          CLEAR     37  37 100 CALM      30.35F
$$

NCZ021-022-025-041-071-084-088-180500-
CENTRAL NORTH CAROLINA

CITY           SKY/WX    TMP DP  RH WIND       PRES   REMARKS
CHARLOTTE      CLEAR     54  41  61 E6        30.33S
GREENSBORO     CLEAR     47  41  80 CALM      30.33S
WINSTON-SALEM  CLEAR     47  39  74 CALM      30.34S
RALEIGH-DURHAM CLEAR     44  42  93 CALM      30.34F
FORT BRAGG     CLEAR     48  42  81 NE3       30.31F
FAYETTEVILLE   CLEAR     48  45  89 N6        30.32S
BURLINGTON     CLEAR     41  40  96 CALM      30.33F
LAURINBURG     CLEAR     46  43  89 N3        30.33S
$$

NCZ011-015-027-028-043-044-047-080-103-180500-
NORTHEASTERN NORTH CAROLINA

CITY           SKY/WX    TMP DP  RH WIND       PRES   REMARKS
ROCKY MT-WILSO CLEAR     44  43  96 CALM      30.34F
GREENVILLE     CLEAR     43  43 100 CALM      30.34S
WASHINGTON     CLEAR     47  43  86 N3        30.33F
ELIZABETH CITY CLEAR     53  47  79 N13       30.33F
MANTEO         CLOUDY   N/A N/A N/A NE7       30.31F
CAPE HATTERAS  CLOUDY    61  52  72 VRB6G21   30.27F
$$

NCZ078-087-090-091-093-098-101-180500-
SOUTHEASTERN NORTH CAROLINA

CITY           SKY/WX    TMP DP  RH WIND       PRES   REMARKS
LUMBERTON      CLEAR     46  43  89 NE12      30.31S
GOLDSBORO      CLEAR     49  42  76 NE5       30.31F
KINSTON        CLEAR     45  42  92 CALM      30.34S
KENANSVILLE    CLEAR     43  41  93 CALM      30.33S FOG
NEW BERN       CLEAR     52  44  74 N10       30.33S
CHERRY POINT   CLEAR     55  46  71 N12       30.31
BEAUFORT       CLEAR     52  49  89 N7        30.29S
JACKSONVILLE   CLEAR     50  46  86 N7        30.31R
WILMINGTON     CLEAR     49  44  83 NE6       30.30S
$$





USA.gov is the U.S. government's official web portal to all federal, state and local government web resources and services.